TimeEDT,TemperatureF,Dew PointF,Humidity,Sea Level PressureIn,VisibilityMPH,Wind Direction,Wind SpeedMPH,Gust SpeedMPH,PrecipitationIn,Events,Conditions,WindDirDegrees,DateUTC
12:47 AM,51.8,48.2,88,29.98,2.0,North,3.5,-,0.13,Rain,Heavy Rain,10,2013-03-31 04:47:00
12:49 AM,51.8,48.2,88,29.98,1.5,North,4.6,-,0.14,Rain,Heavy Rain,10,2013-03-31 04:49:00
12:53 AM,51.1,48.9,92,29.98,1.5,Calm,Calm,-,0.15,Rain,Rain,0,2013-03-31 04:53:00
12:58 AM,51.8,50.0,94,29.98,1.0,Calm,Calm,-,0.02,Rain,Heavy Rain,0,2013-03-31 04:58:00
1:02 AM,51.8,50.0,94,29.98,1.5,Calm,Calm,-,0.04,Rain,Rain,0,2013-03-31 05:02:00
1:07 AM,51.8,50.0,94,29.97,1.2,Calm,Calm,-,0.06,Rain,Heavy Rain,0,2013-03-31 05:07:00
1:16 AM,51.8,48.2,88,29.97,1.0,Calm,Calm,-,0.08,Rain,Heavy Rain,0,2013-03-31 05:16:00
1:19 AM,51.8,50.0,94,29.97,1.5,East,3.5,-,0.10,Rain,Rain,100,2013-03-31 05:19:00
1:42 AM,51.8,50.0,94,29.97,2.0,Calm,Calm,-,0.16,Rain,Light Rain,0,2013-03-31 05:42:00
1:53 AM,51.1,50.0,96,29.95,1.5,Calm,Calm,-,0.19,Rain,Rain,0,2013-03-31 05:53:00
2:11 AM,51.8,48.2,88,29.95,2.0,East,3.5,-,0.02,Rain,Light Rain,90,2013-03-31 06:11:00
2:31 AM,51.8,50.0,94,29.94,1.5,Calm,Calm,-,0.03,Rain,Light Rain,0,2013-03-31 06:31:00
2:47 AM,51.8,50.0,94,29.93,2.0,SE,3.5,-,0.05,Rain,Light Rain,130,2013-03-31 06:47:00
2:53 AM,51.1,50.0,96,29.92,2.0,ESE,3.5,-,0.06,Rain,Light Rain,120,2013-03-31 06:53:00
3:00 AM,51.8,50.0,94,29.93,3.0,SE,3.5,-,0.00,Rain,Light Rain,130,2013-03-31 07:00:00
3:29 AM,51.8,50.0,94,29.91,2.0,Calm,Calm,-,0.04,Rain,Light Rain,0,2013-03-31 07:29:00
3:53 AM,51.1,50.0,96,29.89,1.8,Calm,Calm,-,0.08,Rain,Light Rain,0,2013-03-31 07:53:00
4:33 AM,51.8,50.0,94,29.90,3.0,Calm,Calm,-,0.03,Rain,Light Rain,0,2013-03-31 08:33:00
4:53 AM,52.0,50.0,93,29.88,5.0,SSW,6.9,-,0.03,,Light Drizzle,210,2013-03-31 08:53:00
5:53 AM,54.0,52.0,93,29.88,9.0,SW,12.7,-,0.00,,Light Drizzle,220,2013-03-31 09:53:00
6:44 AM,53.6,51.8,94,29.89,10.0,SW,13.8,-,0.00,,Overcast,220,2013-03-31 10:44:00
6:53 AM,54.0,52.0,93,29.88,10.0,SSW,11.5,-,0.00,,Mostly Cloudy,210,2013-03-31 10:53:00
7:17 AM,53.6,51.8,94,29.89,10.0,SW,12.7,-,N/A,,Overcast,220,2013-03-31 11:17:00
7:53 AM,55.0,52.0,89,29.89,10.0,SSW,15.0,-,N/A,,Overcast,210,2013-03-31 11:53:00
8:53 AM,55.0,53.1,93,29.91,10.0,SW,12.7,-,N/A,,Overcast,220,2013-03-31 12:53:00
9:53 AM,57.0,53.1,87,29.91,10.0,SW,13.8,-,N/A,,Overcast,220,2013-03-31 13:53:00
10:53 AM,59.0,54.0,83,29.90,10.0,SW,16.1,-,N/A,,Overcast,220,2013-03-31 14:53:00
11:53 AM,59.0,52.0,78,29.91,10.0,SW,15.0,-,N/A,,Overcast,230,2013-03-31 15:53:00
12:53 PM,60.1,52.0,75,29.89,10.0,SW,15.0,-,N/A,,Overcast,230,2013-03-31 16:53:00
1:53 PM,62.1,53.1,72,29.88,10.0,SW,12.7,-,N/A,,Overcast,220,2013-03-31 17:53:00
2:04 PM,62.6,53.6,72,29.89,10.0,SSW,10.4,-,N/A,,Overcast,210,2013-03-31 18:04:00
2:45 PM,62.6,51.8,68,29.88,10.0,West,11.5,-,N/A,,Overcast,260,2013-03-31 18:45:00
2:53 PM,61.0,50.0,67,29.87,10.0,West,11.5,-,N/A,,Overcast,260,2013-03-31 18:53:00
3:13 PM,59.0,51.8,77,29.89,2.0,SW,11.5,-,0.02,Rain,Rain,230,2013-03-31 19:13:00
3:39 PM,57.2,53.6,88,29.89,5.0,West,6.9,-,0.13,Rain,Light Rain,260,2013-03-31 19:39:00
3:53 PM,57.0,54.0,89,29.87,8.0,West,5.8,-,0.13,Rain,Light Rain,260,2013-03-31 19:53:00
4:41 PM,57.2,55.4,94,29.87,10.0,West,5.8,-,0.01,,Overcast,260,2013-03-31 20:41:00
4:48 PM,57.2,55.4,94,29.87,10.0,WSW,6.9,-,0.01,,Overcast,250,2013-03-31 20:48:00
4:53 PM,57.9,55.0,90,29.86,10.0,West,8.1,-,0.01,,Overcast,260,2013-03-31 20:53:00
5:05 PM,57.2,55.4,94,29.86,10.0,West,3.5,-,N/A,,Overcast,260,2013-03-31 21:05:00
5:53 PM,59.0,55.0,87,29.84,10.0,Calm,Calm,-,N/A,,Overcast,0,2013-03-31 21:53:00
6:53 PM,57.0,55.0,93,29.84,5.0,NW,4.6,-,0.01,Rain,Light Rain,320,2013-03-31 22:53:00
7:53 PM,57.0,54.0,89,29.85,10.0,WNW,4.6,-,0.03,,Overcast,300,2013-03-31 23:53:00
8:53 PM,55.0,53.1,93,29.86,10.0,WNW,3.5,-,0.00,Rain,Light Rain,300,2013-04-01 00:53:00
9:53 PM,54.0,52.0,93,29.88,4.0,West,4.6,-,0.02,Rain,Light Rain,260,2013-04-01 01:53:00
10:18 PM,53.6,51.8,94,29.89,10.0,WSW,4.6,-,0.01,,Overcast,250,2013-04-01 02:18:00
10:49 PM,53.6,51.8,94,29.89,10.0,SW,4.6,-,0.01,,Overcast,220,2013-04-01 02:49:00
10:53 PM,53.1,51.1,93,29.88,10.0,SSW,5.8,-,0.01,,Overcast,210,2013-04-01 02:53:00
11:53 PM,52.0,50.0,93,29.90,10.0,WSW,4.6,-,N/A,,Overcast,250,2013-04-01 03:53:00